User: anonymous   Login
Location: Unspecified
(0.0000°N, 0.0000°E)
Time: 01:32:50
(UTC+02:00)
Language:

ASC 2 Rocket - Orbit

View from above orbital plane
View from above orbital plane
View from above satellite
View from above satellite

Ground track
Ground track

The orbit data is extracted from the following two-line orbital elements,

1 21228U 91028B   15241.21593755  .00000182  00000-0  19228-5 0  9993
2 21228 023.9964 195.1984 1144068 211.7926 304.2345 12.53141162115171
Epoch (UTC): 29 August 2015 05:10:57
Eccentricity: 0.1144068
inclination: 23.9964°
perigee height: 555 km
apogee height: 2347 km
right ascension of ascending node: 195.1984°
argument of perigee: 211.7926°
revolutions per day: 12.53141162
mean anomaly at epoch: 304.2345°
orbit number at epoch: 11517

The dashed part of the orbit path shows where the satellite is in the earth's shadow,  

DLR